Theta_e
327 329 329 326 324 324 321 316 302 306 308 298 298 301 297 303 303 303 303 304 302 305 306 306 306 304 304 304 305 306 307 304 305 300 299 314 327 328 335 340 337 338 343 345 349 352 353 348 352 353 354 354 353 353 352 352 352 351 351 350 350 350 349 349 348 347 347 346 347 347 347 347 347 347 347 347 347 347 348 347 348 348 348 348 348 348 347 346 346 345 343 341 339 338 336 334 333
325 326 325 327 323 322 316 310 305 300 302 297 297 300 300 302 302 302 302 304 304 305 305 306 306 305 304 305 306 305 307 308 308 308 312 315 322 324 327 340 338 337 343 346 349 350 351 354 348 354 354 354 353 353 352 352 352 351 350 350 350 349 349 348 348 347 347 346 346 346 346 346 346 346 346 345 346 346 347 347 347 347 348 348 347 347 347 346 345 343 339 338 337 334 334 334 333
324 322 325 323 321 319 315 310 300 300 297 294 297 300 302 301 301 303 304 305 305 305 305 305 305 305 306 305 304 305 303 308 308 308 311 320 317 322 330 333 340 343 342 346 349 349 351 351 345 353 354 354 353 353 353 353 352 351 350 350 350 349 349 348 347 347 346 346 345 345 345 345 346 346 345 346 346 346 346 346 347 347 347 347 346 346 346 345 344 343 339 337 335 332 331 332 334
326 324 319 319 314 316 308 306 303 299 296 296 296 301 301 302 302 304 304 305 306 304 305 306 305 307 306 304 305 307 307 307 309 310 314 318 320 326 328 331 341 341 344 347 349 349 351 349 345 352 354 354 353 353 353 353 352 351 350 350 350 349 349 348 347 347 346 346 345 345 345 345 346 346 345 346 346 346 346 346 346 347 347 346 346 345 345 344 343 342 339 338 335 332 330 330 333
328 323 322 319 318 308 309 303 301 301 295 297 295 300 301 303 303 304 305 305 305 304 305 305 306 307 307 306 307 305 306 310 310 311 313 323 327 328 330 339 342 341 342 346 349 349 350 344 344 350 354 353 353 353 352 352 352 351 350 350 350 349 349 348 348 347 346 345 345 345 345 345 345 345 346 345 345 345 345 345 346 347 346 345 344 343 343 342 341 341 339 338 336 332 330 330 331
325 323 323 321 311 312 308 302 299 298 300 301 298 300 302 303 303 303 305 306 305 305 305 306 305 305 305 306 308 307 309 306 310 316 318 324 328 330 336 340 340 340 342 346 349 348 350 342 346 349 353 353 353 353 352 352 352 351 350 350 350 349 349 348 348 347 345 345 344 344 344 345 346 345 346 345 344 344 345 345 346 346 345 345 343 342 341 340 340 339 339 338 335 331 329 329 330
318 319 318 316 312 313 304 300 298 298 299 300 301 301 303 303 303 302 305 305 304 305 304 305 304 305 304 306 307 309 309 310 313 316 323 326 331 334 337 339 340 340 342 345 349 347 349 340 348 350 352 352 353 353 352 352 352 351 350 350 349 349 349 348 348 348 346 345 344 344 345 345 345 346 346 345 344 344 344 345 346 345 345 344 342 342 341 344 343 341 339 337 333 329 327 328 329
319 317 315 310 306 309 302 301 299 302 299 301 302 302 303 303 302 302 304 304 302 303 304 304 304 304 303 305 304 308 312 314 311 327 329 330 332 333 337 337 339 339 341 344 347 347 345 339 346 348 352 352 353 353 352 352 352 351 350 350 350 349 349 348 347 347 348 346 344 345 345 345 346 346 346 345 344 344 344 345 345 345 344 342 342 341 341 342 342 341 339 335 331 328 326 327 327
318 315 312 313 303 305 301 300 300 300 301 301 303 304 306 305 304 303 303 303 304 303 304 306 305 302 303 305 305 310 312 315 321 325 326 330 332 333 335 336 338 339 341 342 344 346 349 338 343 346 348 352 353 352 352 352 351 351 350 350 349 349 348 348 347 347 347 347 346 346 346 346 346 346 345 345 345 345 345 345 345 344 343 342 341 340 339 340 340 340 337 334 331 327 326 326 327
314 314 308 308 307 300 300 299 299 301 301 302 302 303 303 303 303 302 304 303 303 303 303 303 305 302 304 303 306 310 310 314 320 322 324 329 332 335 334 334 336 338 339 341 343 344 345 342 337 342 346 350 352 352 352 352 352 351 350 350 349 349 348 348 348 347 347 347 346 346 346 346 346 346 345 345 345 344 345 345 344 344 343 342 340 339 338 338 339 339 336 334 331 327 325 325 327
309 311 310 306 301 298 298 298 300 301 301 303 303 304 304 303 302 302 303 303 302 303 303 303 305 304 304 304 307 310 310 314 317 316 322 327 331 334 335 335 336 338 338 341 342 344 344 347 337 336 341 344 347 350 350 351 351 350 350 350 349 349 349 349 348 347 347 347 346 346 346 346 347 347 345 345 344 344 345 345 344 343 342 341 339 338 337 338 340 338 336 333 330 327 325 325 326
304 308 310 302 300 300 300 299 299 301 301 302 302 302 304 302 302 303 303 302 303 303 304 304 303 305 303 303 306 308 310 312 315 317 322 327 329 330 331 333 334 335 338 338 340 341 344 346 347 340 333 335 342 345 347 348 349 350 349 350 349 349 349 349 348 348 348 347 347 346 346 346 347 346 345 345 342 342 342 343 343 342 342 340 339 338 340 340 339 337 334 332 329 327 325 325 325
310 308 304 301 301 300 299 299 299 301 301 301 302 302 301 301 302 304 303 303 302 303 304 306 305 304 302 303 308 308 308 308 311 314 320 325 328 330 331 331 332 333 335 338 339 339 341 343 344 346 343 331 333 337 341 343 344 347 348 348 348 348 348 349 349 348 348 348 348 347 347 345 345 345 344 345 343 342 341 340 341 342 341 340 339 339 339 339 337 335 333 331 329 326 324 323 324
310 310 306 300 298 300 300 300 300 299 299 302 303 301 301 302 303 303 305 304 303 303 304 305 305 305 303 304 304 306 307 308 308 311 318 321 322 321 327 328 328 330 332 335 336 338 339 340 342 344 346 347 348 341 335 337 342 344 344 344 345 345 346 347 347 347 347 346 345 343 341 341 343 345 344 343 343 342 341 341 341 341 341 340 339 339 338 337 335 334 332 330 328 326 324 323 322
310 307 305 302 299 300 300 298 300 300 299 302 301 301 301 303 302 302 304 303 303 304 305 304 306 303 301 302 304 306 304 305 307 309 314 316 316 315 317 318 317 319 322 323 323 324 327 336 340 342 344 346 347 347 348 348 334 340 340 341 342 342 343 344 344 342 342 342 339 337 337 336 337 337 341 341 340 339 337 339 341 342 340 339 340 339 337 337 335 333 332 330 328 326 324 323 322
311 308 305 301 298 299 300 299 298 301 300 302 302 299 301 302 303 304 304 303 305 306 305 304 304 303 304 304 302 302 303 304 306 308 311 313 315 315 314 313 314 313 316 315 316 316 319 325 331 339 341 343 345 346 347 348 337 332 337 337 337 339 340 340 340 337 337 333 331 330 329 336 332 339 328 338 335 336 334 336 339 341 339 338 339 338 338 337 335 333 331 329 327 324 322 320 318
308 310 300 299 297 298 300 300 300 298 301 303 302 302 302 302 302 303 303 303 303 304 305 303 303 304 302 301 301 302 303 305 307 308 310 310 311 312 313 313 313 313 314 314 314 314 316 316 322 327 336 340 342 345 346 347 347 332 334 333 333 334 336 336 337 331 327 324 327 324 327 349 347 344 345 343 329 343 329 326 336 338 338 339 339 338 337 336 335 333 331 328 325 320 317 315 315
309 302 299 297 300 299 303 302 302 303 302 302 302 301 303 302 304 304 303 303 302 304 304 301 303 302 302 301 302 303 304 305 306 307 307 308 308 308 309 309 310 310 312 313 314 313 314 315 316 319 327 332 339 342 344 345 346 338 348 348 347 342 334 332 342 347 337 349 327 338 345 343 343 345 344 338 343 342 337 322 329 335 337 335 337 338 337 335 334 333 330 327 323 319 315 323 316
305 300 300 298 301 301 303 304 303 303 302 303 302 300 301 303 303 304 303 303 303 303 304 303 300 300 303 302 302 302 303 303 304 304 304 304 304 304 306 308 308 309 310 311 313 313 314 315 316 316 320 328 331 339 342 344 345 346 347 345 346 337 342 346 346 347 347 346 346 346 341 343 343 343 344 340 341 330 342 321 326 331 334 333 334 336 336 335 334 333 330 326 322 318 325 322 317
304 305 299 299 303 300 302 303 303 303 303 302 302 301 300 304 303 304 302 303 302 302 303 303 303 302 302 301 301 302 302 302 303 303 303 303 303 303 304 304 306 308 308 310 311 313 314 315 315 316 317 320 330 335 340 343 344 345 345 345 345 346 344 347 347 346 346 347 346 345 344 343 344 344 329 324 332 341 339 322 323 326 327 326 327 333 332 334 334 332 328 324 323 325 327 321 316
304 304 300 301 300 301 302 302 303 301 302 303 302 301 301 303 302 302 303 301 303 302 301 301 301 301 301 300 300 301 301 301 302 302 302 302 303 304 303 304 305 306 308 309 313 312 314 315 316 317 318 319 327 334 338 340 343 344 343 344 345 346 346 345 345 346 346 347 346 345 345 345 345 343 343 342 341 340 341 341 340 338 337 337 326 338 336 336 333 333 329 326 329 328 324 320 317
306 302 302 302 300 302 303 303 301 301 299 301 300 300 302 302 301 302 303 299 302 302 300 300 300 299 298 298 298 300 300 300 300 300 300 301 301 302 303 305 306 307 309 310 311 312 314 315 317 318 319 319 325 333 337 339 340 343 344 343 341 342 342 343 343 344 343 344 342 342 342 342 343 342 343 343 340 341 340 338 337 338 338 337 335 337 337 335 334 333 332 330 328 327 322 320 316
302 301 302 301 302 303 303 302 300 300 301 301 301 302 302 301 302 303 302 302 300 297 298 298 298 298 297 298 299 299 299 299 299 299 299 300 300 301 302 303 304 305 308 309 310 312 313 314 316 318 319 320 323 333 338 339 340 341 341 343 342 343 340 339 342 341 342 345 344 343 342 342 341 341 340 341 342 341 340 338 338 338 338 337 336 336 335 334 332 332 331 330 327 323 320 317 315
302 300 301 302 301 302 302 303 299 300 301 301 302 299 300 300 299 300 300 298 297 297 298 297 297 298 298 298 298 298 298 298 298 298 299 299 299 300 301 302 304 305 308 308 310 311 313 312 313 320 320 318 325 333 336 338 340 340 342 340 338 340 340 341 340 340 341 341 339 339 338 340 340 340 340 339 339 339 339 338 337 337 337 336 334 331 332 331 331 331 332 329 325 323 320 319 317
302 300 301 301 299 302 302 302 300 300 301 301 298 299 300 301 300 298 299 297 297 297 297 297 297 298 298 298 297 297 298 298 298 299 300 300 301 302 303 304 304 306 306 306 308 310 311 311 315 320 322 322 329 332 335 337 340 337 340 341 340 334 338 339 338 338 337 337 337 337 338 338 339 338 338 338 340 339 338 337 336 335 335 335 333 330 328 329 329 330 330 327 327 325 323 322 320
301 300 301 300 300 301 301 299 299 299 299 298 298 299 301 299 298 299 298 296 297 297 297 296 298 298 297 297 296 296 297 297 298 298 299 300 301 301 302 303 303 304 304 306 306 308 309 310 317 320 323 325 331 333 334 335 337 338 337 332 334 335 332 330 331 330 328 329 331 334 334 334 336 337 336 336 334 332 331 330 330 330 333 334 334 331 330 329 329 327 326 325 325 325 325 324 321
300 300 300 300 301 298 300 299 300 297 299 298 299 300 299 298 297 299 295 296 297 297 296 296 297 296 296 296 296 296 296 296 296 298 299 300 300 300 301 302 302 303 304 304 305 306 307 311 317 320 323 326 331 331 331 331 328 327 328 327 327 327 326 326 326 326 325 325 327 329 329 328 331 333 335 335 332 329 329 330 328 329 333 331 331 332 330 328 325 326 325 325 323 324 325 321 322
299 298 299 299 299 301 300 298 298 299 299 298 299 299 298 297 297 299 295 296 297 297 296 296 296 296 295 295 295 296 296 297 297 298 297 297 298 298 299 299 300 302 303 302 304 305 308 309 315 319 321 323 325 325 324 322 322 321 322 323 321 322 324 322 322 322 319 321 324 324 325 326 328 328 329 331 331 328 327 327 327 327 327 326 325 325 323 323 321 319 318 317 320 322 319 319 320
299 299 299 300 301 301 300 299 298 297 299 297 300 298 296 296 298 295 296 296 296 297 296 295 295 295 295 295 295 295 295 296 297 297 296 297 298 298 298 299 300 300 302 302 303 306 306 309 313 318 320 320 320 320 319 319 319 318 317 318 317 317 318 319 319 319 319 319 320 321 322 323 325 327 326 325 324 323 322 322 321 321 321 323 322 321 322 322 320 319 317 316 316 317 320 319 320
297 299 298 299 300 300 299 298 298 298 298 297 299 295 300 298 297 295 296 296 296 297 297 296 295 294 294 295 295 295 295 296 295 296 296 296 297 297 298 299 299 299 300 302 304 304 306 308 312 315 316 315 315 315 315 315 313 313 313 313 314 314 313 313 314 315 315 316 317 318 321 323 323 325 324 322 323 323 321 320 319 318 318 318 319 320 319 318 318 317 316 319 315 317 317 316 318
299 297 297 297 296 298 299 299 299 299 297 296 298 296 299 299 296 295 296 296 296 298 297 296 294 294 294 294 294 295 294 295 294 295 295 296 296 297 297 299 299 299 300 302 302 303 306 308 310 310 310 311 310 309 309 309 309 309 309 308 309 311 310 308 307 310 312 312 313 313 315 317 320 321 320 320 320 320 318 316 316 317 318 319 319 319 319 319 318 316 316 319 317 315 314 312 313
298 297 296 296 295 298 299 299 297 299 297 298 299 296 299 300 297 295 295 296 296 297 298 296 294 294 294 294 294 294 294 295 295 295 295 295 296 296 297 297 298 298 299 299 301 303 305 306 308 308 308 307 307 307 306 306 305 305 305 305 306 307 306 306 304 305 308 308 308 310 311 312 314 316 319 319 318 317 316 315 315 315 316 318 318 317 317 317 316 315 315 318 318 313 312 313 313
296 296 297 296 296 297 297 297 296 297 297 298 299 297 297 299 297 296 295 295 296 297 297 296 294 293 294 294 293 294 294 295 295 295 294 295 296 296 296 296 297 297 298 298 300 302 303 304 305 306 306 307 306 305 304 303 303 302 301 301 301 302 301 302 302 303 303 305 305 305 307 309 311 312 313 315 315 315 315 314 313 314 314 314 312 311 311 314 314 312 310 310 313 311 307 307 307
297 296 295 298 295 296 295 298 297 297 296 298 298 296 299 298 297 296 295 296 296 296 297 294 294 294 293 294 293 293 293 294 294 294 293 294 295 295 296 297 297 297 298 299 300 302 303 303 304 305 306 306 305 304 303 302 302 302 301 300 300 299 299 300 300 301 301 301 303 303 304 306 308 310 310 311 310 310 310 310 310 311 312 311 310 310 310 311 312 312 308 306 308 308 306 304 304
297 295 294 295 294 294 296 296 297 297 297 297 298 296 299 298 298 296 296 295 296 297 297 295 293 293 293 293 293 292 293 293 293 293 293 293 294 295 295 296 297 298 298 299 300 301 303 303 303 304 305 305 304 304 304 303 302 301 301 301 300 299 298 298 299 299 299 300 300 302 303 304 304 307 308 309 309 308 308 308 308 308 309 308 308 308 306 306 307 307 308 304 302 301 301 301 301
297 298 297 296 295 296 294 297 298 297 297 297 298 297 299 301 298 297 295 295 295 297 294 293 293 293 293 293 293 293 293 292 293 293 293 294 294 294 295 296 297 298 298 299 300 301 302 303 303 303 303 304 305 305 306 305 304 302 301 300 299 298 298 297 298 298 298 298 299 300 301 302 303 304 305 306 306 306 307 306 306 307 307 306 305 304 304 304 305 305 304 305 304 303 302 303 303
296 297 296 295 295 297 296 296 297 295 296 297 298 299 299 300 302 298 297 295 295 295 294 293 293 293 293 293 293 292 292 292 293 293 293 293 294 294 295 296 296 297 297 298 299 299 300 301 302 301 302 303 305 305 305 305 304 301 300 299 297 297 297 297 296 296 297 297 298 299 300 300 301 302 302 304 304 303 304 304 305 305 305 305 304 303 304 305 306 307 306 304 304 302 301 303 303
296 296 295 295 296 294 297 296 295 296 295 296 296 296 297 299 301 300 296 295 295 295 295 294 293 293 293 293 292 292 292 292 292 293 292 293 293 294 295 295 295 296 295 296 297 298 298 300 300 300 301 301 302 302 302 301 300 300 299 297 296 296 296 296 295 295 295 296 296 297 298 298 299 299 300 301 301 302 302 302 302 302 303 303 303 303 303 302 304 305 307 305 305 303 300 301 302
295 295 295 293 295 296 297 295 295 296 294 295 295 294 296 299 301 299 296 295 296 295 295 295 294 293 292 292 292 292 291 292 291 291 292 292 293 293 294 294 294 294 295 295 296 298 298 299 299 300 301 301 301 301 301 299 299 299 298 296 295 294 294 295 294 294 294 294 294 295 295 296 297 297 298 298 299 300 300 300 300 300 301 301 301 300 301 301 301 302 303 304 303 303 301 301 301
295 294 292 291 296 293 294 294 293 293 295 294 293 293 296 300 301 299 295 294 292 291 291 292 293 293 293 292 292 292 291 291 291 291 291 291 292 293 293 293 293 294 294 295 295 296 297 298 298 299 299 299 299 298 297 297 297 297 297 296 296 295 293 294 294 294 293 293 292 293 293 294 294 295 296 296 297 297 298 298 299 299 299 300 299 298 298 298 299 300 301 301 303 301 300 299 301
295 295 294 294 294 294 294 295 294 293 293 291 293 294 295 299 299 297 291 291 290 290 290 291 291 292 292 292 292 292 291 291 291 291 291 291 292 291 291 291 292 293 293 293 293 294 295 296 297 298 298 298 298 297 297 296 296 295 295 295 296 295 295 294 293 291 291 291 291 291 291 292 293 293 293 294 294 295 296 296 297 297 297 298 298 297 296 297 297 298 299 299 300 299 298 299 299
294 295 295 295 296 294 294 294 293 294 294 293 294 291 293 297 295 296 292 290 290 290 290 291 291 291 290 290 291 291 291 291 291 291 291 291 291 291 291 291 292 292 291 291 292 293 295 296 296 297 297 297 297 298 299 299 297 296 296 295 294 292 290 290 288 288 289 289 288 290 290 291 291 291 292 292 292 292 293 293 294 294 294 294 295 295 295 295 295 296 297 297 297 298 296 295 296
292 295 296 295 295 294 294 292 292 290 289 291 290 290 289 297 296 296 292 291 291 290 289 291 291 290 290 291 292 291 290 290 290 290 290 290 290 291 290 291 291 291 290 291 291 292 293 294 295 296 296 296 296 296 297 297 296 295 294 293 292 291 288 288 289 289 289 289 290 289 289 290 290 290 290 291 291 291 292 292 292 292 292 292 292 292 291 291 292 293 294 294 295 296 295 292 293
293 295 293 295 293 293 293 293 293 293 293 293 289 292 288 289 296 295 290 291 292 292 291 290 290 290 290 291 291 291 291 291 291 290 290 290 290 290 290 289 289 289 289 290 291 291 292 292 294 294 294 294 294 295 294 295 293 293 292 291 290 289 288 287 288 288 289 289 289 289 289 288 289 290 289 290 290 290 290 290 291 291 290 291 290 290 290 291 291 291 291 291 291 292 293 291 291
295 291 294 294 294 294 295 294 292 292 290 289 290 293 287 288 295 293 292 292 295 294 293 291 291 291 291 291 291 291 291 291 291 290 289 289 289 289 289 289 288 289 289 289 289 290 291 291 292 292 292 292 292 292 293 293 293 292 291 290 289 289 289 288 289 289 289 289 288 288 288 288 288 288 289 289 289 289 289 289 290 289 289 289 289 290 290 290 290 290 290 290 291 291 291 291 290
293 292 293 293 293 293 294 293 293 290 288 286 290 291 287 289 295 296 293 292 293 297 296 293 291 291 291 291 291 291 291 290 290 290 290 289 289 288 288 288 288 288 288 289 289 290 290 291 290 290 290 290 291 291 291 291 291 291 290 290 288 288 288 288 289 288 288 289 288 288 288 288 287 287 287 288 288 288 288 288 288 288 288 287 287 288 288 289 289 289 289 289 290 289 290 290 289
294 295 295 293 293 292 291 292 291 288 283 286 293 291 291 286 293 294 295 296 297 295 292 292 292 292 291 291 291 291 290 290 290 289 289 289 288 288 287 288 287 287 288 288 289 289 290 290 289 289 289 289 290 290 290 290 290 291 290 290 289 288 289 288 288 288 288 288 287 287 287 287 287 286 287 287 287 287 287 287 287 287 287 286 286 286 286 286 287 288 288 288 288 288 288 289 289
295 294 293 293 290 291 290 288 289 284 284 287 286 290 291 284 290 296 299 294 293 295 295 292 291 291 291 290 290 290 290 290 289 289 288 288 287 287 287 286 287 287 287 287 288 288 289 289 289 288 288 288 289 289 289 289 290 290 290 290 289 289 289 289 288 288 288 287 287 286 287 287 286 287 286 286 286 287 286 286 286 286 286 286 286 286 286 286 287 287 287 287 286 286 287 287 287
293 294 293 289 287 286 283 285 282 283 284 285 286 287 285 286 293 297 296 296 294 293 292 293 292 291 290 290 290 290 290 290 289 289 288 288 287 287 286 286 286 286 287 287 287 288 288 289 288 288 287 288 288 289 289 289 289 289 289 289 289 289 289 289 288 288 288 287 287 287 287 286 286 285 285 285 285 285 286 285 285 285 285 286 286 286 286 286 286 286 286 286 285 285 285 286 285
292 291 290 288 284 282 280 283 283 282 285 284 286 288 285 291 293 297 298 292 289 289 290 289 292 292 291 291 291 290 290 290 290 289 289 288 288 287 287 286 286 286 286 287 287 287 288 288 288 287 287 288 288 288 288 288 288 289 289 289 289 289 288 288 288 287 287 287 287 286 286 285 285 284 284 284 285 285 285 285 285 285 285 285 285 285 285 285 285 285 284 284 284 284 285 285 284
292 297 294 290 290 284 280 283 281 284 285 283 285 284 286 286 292 289 290 287 288 287 287 289 288 291 292 292 291 291 290 290 290 289 289 288 288 288 287 287 286 286 286 286 287 287 288 288 287 287 287 287 288 288 288 288 288 288 288 288 288 288 288 287 287 287 286 286 286 285 285 285 285 285 284 285 285 285 285 285 285 285 285 285 285 285 285 285 285 285 285 284 284 284 284 284 284
293 293 295 289 290 294 287 285 285 283 284 282 281 285 291 292 290 290 287 288 287 287 288 288 289 289 291 290 290 290 290 290 290 289 289 289 288 288 287 287 286 286 286 286 286 287 288 288 287 287 287 287 288 288 288 288 288 288 288 287 287 287 287 287 286 286 286 286 286 285 284 285 285 285 285 285 284 285 284 284 284 284 284 284 284 283 284 284 284 284 283 283 283 283 283 283 283
291 291 287 291 294 293 285 282 281 281 283 283 288 287 290 294 294 290 289 288 288 287 288 288 289 289 290 290 290 290 290 290 290 290 289 289 288 287 287 287 286 286 286 286 286 287 288 287 287 287 287 287 288 288 288 288 288 287 287 287 287 287 287 286 285 285 285 286 286 285 285 285 285 285 284 284 284 284 283 284 284 283 283 283 283 283 283 283 283 283 283 283 282 282 282 282 282
291 287 292 293 295 295 290 285 283 283 282 284 286 285 288 287 287 291 291 290 290 288 288 289 289 288 288 290 290 291 291 291 291 290 290 289 288 288 288 287 287 286 286 286 286 287 288 288 287 287 286 286 287 287 287 287 287 287 286 287 287 287 287 286 286 285 286 286 286 285 285 285 284 284 284 284 284 283 283 282 282 282 282 283 282 282 282 282 283 283 282 282 282 282 282 282 282
293 292 300 291 286 285 289 287 280 280 279 283 284 286 288 290 290 290 291 291 293 291 288 287 288 288 289 290 291 291 291 291 290 290 290 289 288 288 288 287 287 287 286 286 287 287 287 287 287 287 287 287 287 287 287 287 287 287 287 286 286 286 286 286 286 286 286 286 285 285 284 284 284 284 283 283 283 282 282 282 282 282 282 282 282 282 282 282 282 282 282 282 282 281 281 281 282
292 293 292 294 292 290 286 287 287 287 283 282 283 282 285 291 293 293 294 295 296 293 288 289 290 290 290 290 291 291 291 291 291 290 290 289 289 289 288 287 286 286 286 286 286 286 286 287 287 287 287 287 286 286 286 286 286 286 286 286 286 286 286 285 285 285 285 285 284 284 284 283 283 283 283 283 282 282 282 282 282 281 281 281 281 281 281 281 281 281 281 281 280 280 280 280 281
288 290 290 290 289 291 292 290 287 286 284 283 283 282 287 292 295 295 296 296 296 294 292 292 291 292 291 291 291 291 291 291 291 291 290 289 289 289 288 287 287 287 287 286 286 286 286 287 286 286 286 285 285 285 285 285 285 285 284 284 284 284 284 284 284 285 284 283 284 284 284 284 283 283 283 282 282 282 282 282 281 281 281 281 281 280 281 281 281 280 280 279 279 279 279 279 280
291 291 289 291 288 286 283 283 288 285 285 283 283 282 287 292 288 294 295 295 295 296 295 295 293 291 291 290 291 292 292 292 292 291 290 289 289 289 288 287 287 286 286 285 286 286 286 286 286 286 286 285 285 285 285 285 285 284 284 284 284 284 284 283 283 283 282 282 282 282 282 283 282 282 282 282 282 282 281 281 281 280 280 280 280 280 280 280 279 279 279 280 279 278 278 278 279
Wind_Speed
5 3 2 2 3 2 3 2 3 2 2 5 4 1 5 2 2 3 2 4 2 3 1 1 2 2 4 5 6 3 5 6 6 6 6 3 2 3 1 3 0 2 7 9 10 11 10 5 7 8 9 10 11 11 11 11 11 11 11 10 11 10 9 9 7 7 8 8 8 9 8 8 8 8 9 8 8 9 9 9 9 9 10 11 11 12 13 13 14 13 13 13 12 12 11 11 11
2 3 2 3 1 2 2 2 1 4 4 6 5 2 4 0 4 3 6 5 5 3 2 2 1 2 3 4 3 4 2 3 7 6 3 2 2 4 1 2 0 3 7 9 10 12 11 10 4 9 9 10 10 11 11 11 11 11 11 10 10 9 8 8 8 7 7 8 7 8 8 7 7 8 8 8 7 7 8 8 8 9 10 10 11 13 13 14 14 13 13 13 13 12 11 10 10
2 4 3 3 1 2 3 2 2 2 4 6 4 3 1 3 2 2 3 3 4 3 2 1 1 3 3 5 2 4 7 1 2 1 2 2 3 5 5 2 1 1 7 8 10 12 10 10 6 9 10 9 10 11 11 11 11 10 11 10 10 9 8 7 7 7 7 7 8 8 7 7 7 7 7 7 7 7 7 8 8 8 10 10 10 11 12 12 13 13 13 13 13 12 11 10 10
1 2 3 1 1 2 2 1 2 2 5 5 5 3 1 2 4 3 2 4 3 2 1 3 2 2 4 3 4 4 6 4 4 5 2 4 6 7 5 0 0 2 5 6 9 10 11 9 7 9 10 8 10 11 12 11 10 10 10 11 10 9 8 7 7 7 6 6 7 7 7 7 7 7 6 6 7 6 7 7 8 8 9 9 10 11 11 12 13 13 12 12 13 12 11 10 9
2 1 3 1 2 2 1 2 1 1 5 2 5 3 2 1 2 2 2 3 2 1 2 1 2 1 2 2 2 3 5 1 4 2 3 3 5 6 3 3 2 2 5 7 8 9 9 8 5 8 9 8 9 10 11 10 10 10 10 10 10 10 8 8 7 6 7 6 6 7 6 7 6 6 6 6 6 6 5 7 7 8 9 8 10 10 10 10 10 13 11 12 12 12 11 10 10
1 1 3 2 1 2 2 4 4 4 5 2 6 4 1 1 0 3 3 2 2 1 2 1 4 1 3 3 3 3 7 2 7 3 6 5 10 4 4 2 2 1 4 5 6 8 8 6 4 5 8 8 8 10 11 11 11 10 10 10 10 10 8 8 7 7 7 6 7 7 6 6 7 7 6 6 5 5 5 5 6 8 8 6 7 8 9 8 10 10 10 10 12 11 10 10 10
3 1 1 2 4 2 0 4 5 5 4 3 5 4 1 2 1 3 0 4 1 2 1 2 2 2 3 2 2 4 6 5 4 5 6 8 6 2 3 2 0 3 3 4 5 7 7 6 3 3 6 7 8 8 10 11 11 11 10 10 10 9 8 8 8 7 6 7 7 6 6 7 7 7 7 7 5 5 5 5 6 7 6 5 7 9 9 12 12 10 10 10 11 11 10 10 10
2 3 2 2 3 1 4 4 5 1 4 2 4 2 1 1 1 2 2 2 4 0 3 1 2 2 5 2 1 5 6 7 4 5 6 4 3 3 3 1 1 3 5 3 5 6 7 3 3 3 3 7 7 8 10 10 11 11 11 10 10 10 9 7 8 8 8 6 7 8 7 6 6 6 6 6 6 5 5 6 7 7 6 9 10 10 10 9 10 9 9 10 10 10 9 9 10
3 1 1 2 3 2 4 3 4 2 1 2 2 5 5 4 2 3 2 2 2 0 2 1 1 4 3 1 4 4 6 9 3 4 8 6 4 2 2 3 2 2 4 4 3 5 7 5 3 4 2 5 7 8 10 10 11 11 11 11 10 10 9 7 7 7 8 6 6 6 7 6 6 6 6 5 5 5 5 7 8 7 8 9 10 9 9 9 8 8 9 10 10 10 9 9 9
2 3 2 1 1 4 4 4 4 3 1 1 2 0 1 1 1 3 2 3 3 2 3 3 4 5 1 5 5 4 5 9 4 5 10 8 5 3 2 3 3 2 3 4 5 5 5 5 2 2 3 3 6 7 8 9 10 10 10 10 9 9 9 8 7 7 7 7 6 6 6 5 5 6 6 5 5 5 5 7 8 8 8 9 8 8 8 8 8 8 9 10 10 9 9 8 9
1 3 2 3 3 5 5 5 3 4 2 1 3 3 3 2 3 1 2 3 0 2 2 3 3 4 2 4 4 3 3 9 11 10 9 7 4 3 3 4 3 2 2 3 3 4 5 7 2 3 2 2 3 7 7 8 9 11 11 10 10 9 9 8 8 7 7 7 7 5 5 5 4 6 5 4 4 4 6 7 7 7 7 7 8 7 7 9 9 9 9 10 9 9 9 9 8
2 0 2 3 4 3 4 5 4 3 2 3 4 1 1 2 2 2 2 1 1 1 2 2 2 1 3 3 4 3 3 12 11 8 8 6 4 5 5 4 5 4 2 2 1 2 3 5 6 5 2 2 2 4 7 7 6 8 8 9 8 8 8 8 7 6 5 6 6 4 3 2 4 5 6 5 4 2 3 6 7 6 7 7 6 8 11 10 9 9 9 9 9 9 9 9 8
1 1 2 3 1 1 3 3 4 2 5 4 4 2 1 3 3 2 3 1 1 1 4 2 1 2 2 3 4 1 7 12 11 9 7 6 5 5 5 7 7 6 5 2 2 0 2 3 6 8 7 3 2 2 5 7 7 6 7 7 7 6 7 7 7 6 5 5 4 5 2 2 3 4 4 5 5 3 5 3 5 6 6 6 7 10 10 10 10 9 9 9 9 9 9 9 8
1 1 1 2 1 1 3 3 3 6 4 4 1 1 1 2 2 3 2 2 2 3 3 3 1 3 1 2 4 3 6 12 12 10 5 4 5 7 8 7 8 8 8 8 5 3 2 3 4 6 8 8 9 5 3 6 8 6 7 7 6 7 6 6 6 5 4 2 4 5 5 4 3 4 4 3 4 4 4 3 4 5 5 6 10 10 11 11 10 10 9 9 9 9 9 9 8
1 1 3 4 3 2 1 4 6 6 4 2 3 1 1 1 2 1 3 3 4 3 1 1 3 5 3 2 4 3 8 13 12 9 4 2 4 7 7 5 7 7 7 8 8 9 9 6 3 4 5 8 10 9 9 7 7 8 5 6 5 6 6 6 6 5 4 3 4 5 5 5 5 6 5 4 4 5 5 4 4 5 5 6 10 11 11 11 12 10 9 9 9 9 9 9 9
2 2 1 3 4 4 4 2 1 4 4 1 3 1 2 5 2 1 3 4 3 2 3 1 1 3 3 3 4 8 10 12 10 7 3 3 2 4 5 6 5 6 5 6 5 6 5 7 7 4 4 5 7 8 8 9 6 7 7 3 5 5 5 5 5 6 5 6 6 5 4 4 6 7 7 3 5 5 5 5 4 2 2 3 9 10 11 12 12 11 9 9 8 8 8 8 8
0 2 3 2 4 5 5 4 6 5 6 1 1 1 1 2 3 2 1 1 4 3 3 5 2 4 4 4 6 7 8 9 8 3 2 4 2 2 3 5 4 4 3 5 6 5 4 4 5 5 5 4 6 7 7 8 5 4 6 7 4 5 6 4 4 5 5 6 6 6 4 4 5 4 6 4 5 5 6 5 4 4 4 3 8 9 11 13 13 12 9 8 8 7 6 7 8
3 1 1 3 2 4 5 5 4 3 5 4 2 2 2 2 2 2 2 3 3 3 2 5 7 8 6 3 4 5 6 8 9 7 7 5 5 4 4 5 5 5 4 4 5 6 5 4 4 3 3 5 4 5 5 6 6 4 9 9 8 6 4 5 5 5 5 4 4 5 6 5 5 5 4 4 4 5 6 5 4 6 7 7 7 8 11 12 12 12 10 8 8 6 1 0 3
1 2 2 1 2 3 1 2 4 3 5 3 1 0 2 2 3 2 4 3 1 4 4 5 5 4 6 6 6 7 7 9 9 9 9 9 7 7 5 5 5 6 6 5 5 7 5 5 5 5 4 4 5 5 5 6 7 7 5 3 5 7 8 7 8 6 7 6 5 6 6 5 5 5 3 0 2 3 3 3 3 7 7 7 7 9 11 11 11 12 11 9 8 6 1 1 2
2 3 1 2 3 3 1 2 4 1 2 3 2 2 3 2 1 2 3 5 3 2 1 6 3 4 4 6 8 8 8 8 9 9 9 9 8 7 6 7 6 6 6 6 5 4 5 5 5 5 5 5 4 3 4 6 6 6 6 4 4 6 6 6 7 8 6 6 5 5 5 5 6 5 5 6 3 5 4 5 4 4 7 7 8 8 10 9 9 11 10 9 6 2 2 1 2
2 2 1 3 3 3 3 4 1 3 1 0 1 1 4 1 1 2 1 6 2 3 4 4 3 4 3 6 7 7 7 8 8 9 8 8 8 6 5 5 5 6 5 6 4 5 7 6 5 4 4 4 4 3 4 5 5 5 6 7 6 2 1 5 6 7 7 7 7 7 6 5 6 5 5 4 5 5 4 4 5 5 5 6 8 4 5 5 5 5 4 4 2 2 2 2 2
1 4 4 4 2 2 5 2 2 2 1 1 2 4 3 2 2 4 6 5 4 4 4 4 4 5 4 4 5 5 7 8 8 9 9 9 9 8 7 6 5 4 6 5 7 7 7 7 6 5 5 4 4 4 4 4 5 5 5 4 4 5 5 4 2 3 6 6 6 6 5 6 7 5 4 5 5 5 5 3 3 5 7 6 6 4 5 5 2 3 3 3 2 2 2 2 2
1 3 1 0 1 2 2 3 3 3 3 3 3 1 0 3 4 3 4 7 4 3 4 5 5 4 3 2 3 5 7 8 8 9 9 9 10 10 8 7 7 7 6 7 7 7 7 8 7 6 5 3 5 5 4 4 5 4 4 2 4 3 2 2 2 2 2 2 4 3 5 5 6 6 6 5 5 5 5 5 4 4 6 5 5 6 6 5 3 3 2 2 3 3 3 2 2
2 2 1 2 2 3 2 2 4 4 4 3 1 1 5 3 6 2 5 6 5 5 4 5 5 4 3 4 6 6 6 6 7 7 7 7 7 8 8 8 8 6 7 9 8 8 8 10 9 8 5 3 5 6 5 5 4 4 2 4 3 2 1 3 3 3 3 3 3 2 4 5 5 5 5 5 6 5 5 4 3 3 4 3 1 2 1 0 2 3 1 3 3 2 2 2 2
1 1 3 1 1 4 2 3 4 4 5 1 0 5 7 6 4 2 2 5 5 5 4 4 3 4 5 6 7 6 6 6 6 6 5 5 5 5 6 6 7 7 9 10 9 8 9 9 10 8 4 2 4 6 6 4 3 3 3 2 2 4 3 3 5 5 5 5 4 3 1 4 3 3 4 3 3 3 3 3 2 2 2 3 3 2 2 2 2 2 2 2 2 2 2 1 1
0 2 1 2 3 3 4 5 7 6 2 3 5 8 5 0 3 5 5 5 5 4 4 3 3 5 6 6 6 6 6 7 6 7 6 4 5 7 8 8 7 8 8 9 9 8 9 11 10 9 5 1 5 6 5 4 4 5 6 7 5 5 7 7 7 6 6 5 6 5 5 4 3 3 3 2 1 3 2 3 4 4 1 1 2 4 3 2 1 0 1 2 2 2 2 1 1
1 0 2 4 3 2 3 5 2 3 3 6 6 5 1 2 1 3 4 6 5 5 5 4 3 6 5 4 5 5 6 8 7 6 6 5 5 7 8 7 9 8 8 9 8 8 9 10 10 9 7 4 2 5 5 5 8 8 7 6 7 7 7 8 7 6 6 7 7 7 6 6 5 4 2 3 4 5 4 3 2 1 1 3 3 2 1 2 2 2 2 2 1 2 0 1 1
1 3 5 5 4 6 4 4 4 3 3 7 7 2 2 2 1 1 5 6 4 5 5 4 4 3 3 4 4 5 5 6 5 6 9 9 7 7 8 7 8 8 7 8 7 7 8 9 9 10 9 7 7 8 7 8 8 8 8 8 8 8 7 6 7 7 7 7 8 7 7 7 6 6 7 6 6 6 5 5 6 6 5 3 3 4 3 3 3 3 4 5 4 3 3 2 3
1 3 6 3 5 7 2 2 3 3 2 4 5 2 5 5 6 4 6 5 5 4 4 4 4 3 3 2 3 5 6 6 6 6 7 6 6 6 7 8 8 7 5 6 7 7 8 7 7 10 10 10 10 10 8 8 8 7 8 8 7 6 7 7 8 8 8 7 7 8 8 8 7 7 8 8 7 7 6 6 5 5 4 3 4 5 4 3 3 4 4 3 3 2 1 2 2
1 2 3 9 4 6 3 1 2 3 3 3 4 6 3 5 3 5 6 5 5 5 4 3 3 2 2 3 3 5 5 5 7 6 6 6 6 6 7 8 8 7 6 6 7 8 6 4 4 6 9 11 10 9 8 8 8 7 7 7 6 8 8 8 8 7 7 6 7 8 8 9 8 7 7 7 6 7 7 6 5 4 3 4 4 4 4 3 4 3 2 1 2 2 3 3 3
4 1 2 4 4 2 3 2 3 2 3 4 5 6 2 4 5 4 5 5 7 6 3 3 2 2 2 3 3 4 5 5 5 5 6 6 5 5 7 7 8 7 6 7 8 8 8 7 5 6 8 9 10 11 11 9 8 8 8 8 8 8 8 8 7 6 7 6 6 8 9 9 9 9 7 7 7 6 7 7 7 5 4 5 6 5 4 3 3 3 2 2 2 3 2 2 2
1 4 4 2 4 1 1 4 2 3 3 2 5 7 6 3 7 5 4 6 5 6 4 3 2 2 2 2 3 3 3 3 3 4 5 5 5 5 6 7 7 7 7 6 6 7 8 8 8 8 9 11 11 10 9 9 9 9 8 8 8 9 8 8 7 7 7 7 8 8 9 9 9 9 9 8 8 9 8 8 7 6 6 6 5 4 4 5 3 3 3 3 3 3 3 2 1
1 5 5 4 2 3 5 3 2 1 1 2 6 5 4 4 7 5 3 6 7 7 4 3 3 2 1 2 2 1 2 3 2 3 5 4 4 4 4 5 5 5 4 5 5 5 7 8 8 9 10 10 11 12 12 11 10 10 10 9 9 9 8 8 7 7 7 8 8 8 9 9 10 10 10 10 10 10 9 8 7 8 7 6 5 5 5 5 5 4 4 5 4 3 4 4 4
5 2 6 2 5 2 3 4 2 1 2 4 3 5 6 4 7 5 3 5 7 8 5 4 3 2 2 2 2 2 2 2 2 2 3 4 3 4 3 3 3 3 3 4 3 4 6 6 7 7 8 9 8 9 9 9 9 9 8 8 9 10 9 8 7 7 8 8 8 8 8 8 9 9 9 8 9 9 9 8 7 7 6 5 5 6 6 4 4 4 5 5 4 4 3 3 3
3 4 4 6 6 8 7 2 2 1 3 6 3 7 11 6 6 5 3 3 7 9 5 5 4 4 4 3 3 3 2 2 2 1 3 3 3 4 3 3 3 4 4 4 5 5 5 5 5 6 7 8 9 9 10 11 11 10 8 9 10 10 8 8 7 8 8 8 8 9 9 8 8 9 9 8 8 8 8 8 7 7 6 6 6 7 7 7 7 6 6 5 5 5 4 4 5
4 4 5 4 7 4 5 5 2 2 4 7 9 10 10 8 10 8 5 5 7 7 4 5 5 5 5 5 3 3 2 2 2 3 3 3 4 4 4 3 3 4 4 5 5 5 5 6 6 6 6 6 6 7 7 7 7 8 8 7 9 8 8 8 8 8 8 8 9 9 9 9 9 9 9 9 9 8 8 8 8 7 7 7 7 8 7 6 6 6 6 5 5 5 6 5 6
5 1 2 7 7 9 4 1 2 1 3 11 13 13 14 14 10 9 7 5 6 7 8 7 7 6 6 5 4 3 2 2 2 2 3 3 3 4 3 3 3 5 6 5 5 6 6 5 6 7 4 4 4 5 5 6 8 8 8 9 8 6 7 7 9 8 9 8 9 9 9 8 9 9 10 9 9 8 8 7 7 8 8 8 8 8 8 8 6 4 5 5 5 5 6 6 7
4 4 5 9 5 10 1 2 2 0 4 5 2 8 13 14 12 6 7 7 12 12 10 8 8 7 5 5 4 4 2 2 2 2 2 2 2 3 2 2 4 5 5 5 5 5 6 6 6 6 4 5 6 5 6 7 7 7 8 7 7 7 7 7 8 8 8 8 10 10 9 9 9 10 9 9 9 8 8 7 8 8 8 8 9 9 10 9 10 8 5 5 6 7 7 9 9
3 7 5 5 9 5 7 3 3 2 3 11 1 9 13 13 12 6 9 10 4 2 3 5 6 6 5 5 5 5 4 4 4 3 2 2 2 3 2 3 3 4 4 5 4 5 6 6 6 5 5 5 6 6 6 8 8 8 9 8 8 9 8 8 8 7 8 9 9 10 9 9 9 9 10 9 8 8 8 8 8 8 9 8 8 9 10 10 9 9 9 6 4 6 7 8 9
7 5 6 10 1 1 5 4 2 3 4 2 2 8 13 14 11 9 4 4 1 1 1 2 3 5 5 5 5 5 5 5 5 4 4 3 3 2 2 3 3 3 3 4 4 5 5 5 5 6 6 7 7 7 9 10 11 12 12 11 10 9 8 8 9 9 10 11 11 10 10 10 10 10 11 10 9 9 9 9 8 8 8 8 8 9 9 9 9 8 8 8 6 6 6 7 9
9 9 9 9 6 8 9 3 1 2 4 1 6 10 13 13 11 7 3 1 1 2 3 4 4 3 1 1 3 3 5 5 5 5 4 4 3 3 3 3 2 3 4 3 3 4 4 5 6 6 7 8 7 9 10 10 11 12 11 12 11 10 8 8 8 9 9 9 9 10 10 10 10 10 10 11 10 10 10 9 9 8 8 8 8 9 9 9 8 8 9 8 9 6 6 5 7
6 10 13 12 9 9 6 1 4 6 6 5 4 6 7 1 4 5 3 3 5 5 6 8 6 6 5 6 6 5 3 3 5 5 5 3 3 3 3 3 3 3 3 3 3 3 4 5 5 6 7 6 7 7 6 5 7 9 9 9 9 8 8 7 8 7 7 8 8 7 9 10 10 10 10 10 10 9 10 9 9 8 9 8 8 8 8 8 10 10 9 8 9 9 7 6 6
5 4 11 14 13 8 3 5 3 6 7 2 3 8 6 2 6 4 3 4 6 6 8 8 8 8 7 7 7 7 7 6 4 4 4 5 4 4 4 3 2 3 3 2 3 4 5 5 5 6 6 5 5 5 4 5 6 6 8 9 9 8 10 7 6 6 7 6 7 8 8 9 9 10 10 10 10 10 9 9 9 9 8 8 8 8 9 9 8 8 8 9 8 7 7 8 8
7 2 2 6 6 7 10 8 9 6 3 1 2 3 6 8 12 4 2 5 8 10 11 11 10 9 9 8 8 7 7 7 6 6 5 4 4 3 4 3 2 3 2 2 3 4 5 5 6 6 5 5 5 4 5 4 7 8 10 10 9 10 10 10 7 7 6 6 7 8 7 8 9 9 9 10 10 9 9 9 9 8 8 8 7 8 8 7 7 7 8 8 7 7 8 7 7
1 2 1 5 6 7 5 6 6 2 3 7 7 4 4 8 7 4 1 7 9 12 13 13 12 11 10 10 8 8 7 7 6 6 7 6 5 4 3 3 3 3 2 2 3 4 4 5 6 7 7 7 6 7 6 6 7 8 9 10 11 9 9 8 7 6 7 6 8 7 8 8 8 9 9 9 9 9 9 8 9 9 8 8 7 7 7 8 9 8 8 8 8 7 7 6 5
2 5 8 7 5 5 4 4 4 2 4 9 8 10 7 10 6 8 4 4 10 6 7 11 13 13 11 9 8 8 7 6 5 5 6 5 4 3 2 3 3 3 2 3 3 4 5 5 7 9 8 7 7 8 8 9 8 7 9 10 14 10 8 7 7 7 7 6 8 7 7 7 7 7 8 9 9 9 9 9 8 9 9 8 7 7 7 8 8 8 8 8 7 7 6 6 6
10 6 8 6 5 4 3 1 2 1 8 11 9 15 10 7 5 9 7 6 2 3 2 3 9 9 9 8 9 8 7 7 5 5 5 4 3 3 3 4 4 4 3 3 3 4 4 6 8 9 8 7 7 8 9 9 8 8 9 10 12 12 10 9 8 7 6 6 7 7 7 6 6 6 6 7 8 8 8 8 8 7 7 7 7 7 7 6 6 6 6 7 8 8 6 6 6
7 4 5 6 2 3 2 1 2 5 8 4 2 6 12 11 4 7 6 3 1 1 1 7 10 11 10 9 8 9 8 7 7 6 6 5 5 4 4 5 5 5 5 4 4 4 5 5 7 11 9 8 7 8 9 8 8 8 9 10 11 10 9 7 8 8 7 7 7 7 5 6 6 6 6 6 7 7 6 6 6 6 7 6 6 5 5 5 5 5 6 6 5 6 6 5 5
3 5 7 7 3 1 5 3 6 10 7 2 2 6 3 15 9 4 3 3 3 2 3 1 8 10 10 9 10 8 7 8 7 7 6 6 6 7 7 6 6 6 5 5 5 4 5 6 8 10 9 8 8 8 9 9 8 8 8 9 9 8 8 8 8 8 6 6 5 6 5 5 5 6 5 5 6 6 5 6 6 5 5 5 5 5 5 5 4 5 5 5 5 6 5 5 5
7 11 10 9 6 5 6 4 2 4 0 1 2 2 7 3 8 16 13 5 3 3 3 2 2 9 10 11 10 9 7 8 7 7 7 7 7 6 6 7 6 5 6 5 5 5 4 6 7 9 10 8 8 8 8 9 8 8 8 8 8 8 8 7 6 6 5 5 4 5 5 5 5 5 5 5 4 4 5 5 5 5 5 4 4 4 4 5 4 4 5 5 5 4 4 4 4
13 5 10 7 7 4 6 6 7 3 1 3 2 3 4 5 3 4 3 2 1 1 2 2 1 2 7 8 8 8 9 8 7 7 8 8 8 8 7 6 6 6 6 6 5 5 6 6 7 9 10 8 8 8 8 9 8 8 8 8 7 7 7 7 6 6 6 6 5 5 5 4 4 4 4 4 4 4 4 4 5 5 5 5 5 5 4 5 5 4 4 5 4 4 4 4 3
4 1 3 1 8 1 5 1 2 2 1 3 2 5 1 4 2 1 1 2 2 3 3 3 4 5 7 8 10 10 10 9 8 8 9 9 8 8 7 7 6 6 7 6 7 6 6 7 8 8 10 9 8 8 8 8 8 8 9 9 8 8 7 7 6 5 5 5 5 5 5 4 4 4 4 4 3 4 4 4 5 5 4 4 5 5 5 4 4 4 3 3 3 3 3 4 3
8 5 8 6 5 2 3 2 3 1 1 8 5 5 5 4 3 3 4 4 5 4 4 3 5 6 8 9 10 11 10 10 9 9 9 10 8 8 8 8 8 7 7 8 8 7 7 8 8 9 9 8 8 8 9 8 9 9 9 9 8 8 8 8 7 8 7 6 5 4 5 4 4 4 3 3 4 4 3 3 3 4 4 4 4 4 4 4 3 3 3 3 3 3 2 2 2
10 7 9 4 1 4 2 6 2 3 8 5 5 10 6 6 6 6 5 7 7 7 7 5 5 7 10 11 11 12 12 10 10 9 8 9 9 10 9 8 9 9 9 8 8 6 6 6 8 10 9 10 8 9 9 8 10 9 9 9 8 7 8 8 8 8 6 6 5 5 4 4 4 3 3 2 2 3 3 3 3 3 3 3 4 4 3 3 3 3 3 3 3 3 3 2 2
2 2 4 8 6 6 5 1 7 4 6 5 6 10 9 11 8 4 7 10 11 9 8 6 8 9 11 11 12 10 9 9 10 11 10 10 10 11 10 9 9 8 8 7 7 6 5 5 7 7 10 9 10 8 8 7 7 6 6 8 9 8 7 7 6 6 6 6 6 5 6 5 4 3 2 2 2 2 2 3 3 3 3 3 4 4 4 4 4 3 3 3 3 4 4 4 3
1 1 3 4 3 5 7 6 1 1 7 2 3 7 7 10 9 16 14 12 12 9 7 10 12 13 11 10 12 13 13 12 12 11 10 10 11 10 10 9 9 9 9 8 8 7 8 7 7 7 7 8 8 9 8 9 7 7 8 8 7 7 7 7 7 6 6 6 6 6 6 5 4 3 3 2 3 3 3 4 3 4 4 4 4 4 4 4 4 4 4 4 4 4 4 4 3
6 7 8 4 2 3 3 1 4 4 4 5 7 7 3 5 4 14 14 13 8 10 11 9 10 11 10 9 10 12 12 12 12 10 9 10 10 9 8 8 8 8 7 7 7 8 8 7 8 8 10 10 10 9 8 8 8 9 10 10 9 8 8 7 7 6 7 6 5 5 4 4 4 3 2 2 3 3 4 4 4 4 5 4 5 5 4 4 4 4 3 3 4 4 4 4 4
13 15 16 17 11 7 7 9 5 1 3 5 3 9 2 2 1 1 3 3 3 7 7 6 6 6 7 7 8 9 10 11 10 8 8 8 8 8 8 7 7 7 8 9 8 8 8 9 8 9 8 9 10 9 9 9 8 8 10 10 10 8 8 7 7 7 6 6 5 4 4 4 4 3 3 3 3 3 3 4 4 4 3 3 3 4 4 3 4 4 4 3 4 5 5 5 5
Wind_Direction
322 331 298 271 255 279 244 4 213 93 227 82 111 210 79 274 312 247 151 183 174 72 22 325 298 218 317 14 358 348 347 7 18 7 59 58 42 34 169 155 272 126 156 158 166 161 175 162 173 162 154 151 154 151 151 148 147 143 139 137 138 143 142 139 135 138 133 129 125 121 119 111 105 98 90 84 80 73 70 73 76 83 88 85 81 80 75 72 69 66 64 61 56 50 45 44 45
314 307 259 242 253 269 173 311 97 140 116 122 81 311 85 83 228 79 81 49 32 58 3 298 267 272 285 291 290 270 134 355 354 34 78 47 13 68 58 198 36 164 161 158 166 169 171 162 163 152 150 146 157 156 153 150 150 146 142 139 138 140 144 141 138 140 134 131 128 123 122 116 108 103 91 84 79 75 70 76 81 86 87 85 82 79 75 69 65 61 60 59 56 49 43 41 44
330 317 226 216 187 7 110 262 194 133 139 104 107 72 146 193 102 106 52 25 21 1 323 260 253 227 215 220 176 323 82 12 345 108 352 116 225 64 12 215 263 293 167 164 166 172 172 164 154 152 148 150 154 155 154 154 153 151 146 142 142 141 145 145 142 138 137 137 133 130 127 121 117 110 102 91 84 78 71 76 84 96 91 83 82 79 76 75 67 60 56 54 52 49 44 39 40
255 354 317 306 152 234 245 166 99 171 99 83 118 121 244 74 95 28 3 16 359 326 245 176 227 82 297 96 42 262 54 69 23 356 77 31 13 337 343 160 231 228 171 170 171 172 181 129 171 146 156 152 153 155 157 155 156 153 150 147 146 147 151 150 147 139 141 143 138 133 129 125 124 117 108 95 84 81 82 84 88 93 88 84 83 76 74 75 73 66 54 49 50 46 44 40 38
232 33 329 232 258 116 336 48 62 242 123 168 102 137 172 222 47 17 69 8 7 284 289 39 216 119 355 340 311 338 38 95 81 16 21 81 5 350 352 31 327 183 172 175 171 174 174 121 159 153 155 154 155 158 156 158 159 159 154 152 152 151 162 150 148 151 149 152 142 143 133 127 127 114 105 97 90 84 84 91 96 97 89 85 84 79 78 71 58 66 48 39 45 45 43 42 39
178 289 31 304 313 33 196 159 134 78 54 5 123 96 113 47 18 11 325 17 81 311 348 313 358 87 153 70 345 5 359 353 347 66 338 49 350 360 79 42 343 145 155 173 174 179 184 133 158 147 158 158 159 162 161 160 162 164 160 159 156 158 166 153 157 155 160 151 157 147 146 136 132 130 122 112 108 99 92 93 110 108 103 89 78 68 62 53 67 62 48 45 45 46 43 40 40
359 231 57 95 117 247 320 107 108 108 80 317 81 113 85 71 341 312 139 169 132 132 275 12 295 251 158 55 192 59 42 4 318 5 349 325 349 46 68 61 72 127 135 159 182 184 175 126 162 135 156 162 167 161 168 169 164 169 166 164 160 164 164 160 163 153 167 167 156 157 156 155 154 141 137 133 127 119 118 115 119 118 115 97 69 61 55 62 68 65 52 52 52 53 49 44 41
119 267 26 244 70 266 117 105 104 15 117 287 351 312 60 21 352 261 65 269 78 312 81 156 258 294 62 270 76 91 70 13 355 6 2 8 24 69 42 35 96 130 150 145 174 193 104 142 183 147 153 170 160 166 177 177 169 170 170 169 168 167 169 167 162 159 167 179 171 168 168 165 159 149 145 138 139 136 134 131 125 121 102 86 81 70 68 66 72 66 63 56 56 58 55 51 45
16 353 178 232 117 65 138 116 92 2 107 213 243 263 300 311 284 287 131 31 159 271 333 19 9 261 67 119 56 93 56 18 75 40 21 20 44 56 33 13 357 112 155 155 165 195 192 147 213 162 148 177 164 180 188 182 180 173 176 174 172 173 168 170 171 164 165 189 181 181 176 171 160 156 150 144 141 146 137 135 133 128 109 97 88 76 69 65 75 74 64 59 58 56 57 54 50
109 309 154 46 84 143 145 131 172 112 33 74 294 230 252 186 190 250 325 149 47 279 62 318 280 54 69 100 115 75 29 8 13 32 13 18 32 67 47 32 24 122 164 171 173 184 188 102 223 194 178 174 176 180 192 191 186 176 182 184 178 172 169 182 172 168 165 185 191 189 172 190 155 160 159 157 145 142 142 138 136 124 113 99 91 80 78 80 84 77 66 61 59 56 56 55 52
187 66 357 191 170 145 188 148 120 152 184 172 245 262 284 266 254 187 281 21 55 357 81 201 171 73 203 87 49 89 119 24 24 14 357 359 15 39 69 48 41 46 149 170 172 185 185 200 156 279 230 204 196 184 195 203 196 182 184 191 183 178 175 178 180 173 177 183 200 192 193 185 168 168 167 174 158 147 145 147 136 123 112 100 86 83 76 70 85 80 71 66 62 56 53 55 54
186 352 219 192 185 214 150 142 133 106 127 188 135 155 88 246 226 193 154 140 52 138 51 272 48 272 152 148 130 114 98 27 19 4 355 349 33 45 45 59 43 45 68 125 195 197 202 192 200 178 255 268 269 204 189 203 202 191 187 191 193 182 177 178 172 172 183 187 194 195 204 182 178 172 167 175 114 202 143 152 140 128 115 102 97 69 82 89 88 80 76 70 61 55 53 55 55
40 282 170 198 93 264 73 153 116 103 151 167 122 96 347 244 275 4 60 128 188 221 102 18 61 261 177 160 92 211 33 25 6 360 353 6 33 46 58 61 50 49 51 67 123 213 247 230 213 210 197 197 231 275 208 189 208 202 194 189 199 184 176 184 170 168 181 183 177 176 185 118 151 150 181 157 154 174 129 158 138 136 124 112 85 86 86 88 86 84 80 72 63 57 54 56 55
323 327 237 177 359 110 169 96 126 171 165 109 59 60 213 267 24 333 324 344 74 21 38 12 244 328 247 215 154 191 29 6 350 350 346 8 46 55 61 66 52 44 30 32 36 17 332 293 261 235 217 213 212 192 224 218 194 206 199 198 195 185 183 180 169 163 166 176 143 118 127 123 128 125 136 139 177 139 130 125 178 146 135 111 107 106 107 105 100 91 81 76 67 60 58 57 53
101 233 76 108 124 194 82 189 164 186 134 151 78 335 173 203 294 304 343 333 63 46 60 288 340 289 86 288 124 35 349 338 337 333 340 51 71 68 65 70 71 61 51 36 29 20 6 344 297 288 262 233 225 221 219 205 209 192 193 199 195 175 183 175 162 161 163 101 93 108 115 138 127 108 102 119 135 137 145 150 203 153 142 123 122 120 117 112 107 92 84 79 69 60 57 58 54
89 181 110 149 155 211 152 190 337 200 135 180 65 320 243 126 257 252 59 333 350 120 273 79 138 335 7 314 25 342 334 329 328 312 298 93 84 79 72 60 68 68 58 45 38 27 7 358 352 309 280 270 248 242 227 228 196 208 185 192 205 200 177 171 161 155 141 122 115 121 130 147 157 137 115 129 140 140 150 228 156 89 157 157 134 127 120 114 106 96 87 80 73 63 60 60 55
190 267 166 133 166 223 143 182 173 176 108 139 356 266 257 136 149 314 17 260 267 87 37 32 28 10 45 27 347 337 335 327 326 296 33 32 358 69 51 34 16 59 36 42 32 21 14 8 350 347 329 280 275 257 254 239 210 194 195 186 196 224 170 178 168 137 140 136 144 137 151 222 229 215 159 194 139 180 180 198 163 162 149 164 141 135 123 117 110 108 106 95 87 82 80 81 65
246 189 153 175 59 199 148 172 170 44 140 134 188 7 311 271 136 120 233 211 231 272 167 94 75 72 73 70 8 353 349 2 11 37 36 32 13 21 23 20 12 12 11 9 22 12 358 359 345 330 318 329 270 253 236 237 227 203 216 213 219 216 207 189 188 219 186 200 163 164 220 235 243 237 229 184 208 177 173 175 185 159 138 149 147 133 123 121 119 123 120 111 106 100 177 146 102
5 123 270 40 176 55 176 104 134 166 109 108 105 289 298 347 315 107 284 165 194 300 122 149 126 116 115 64 36 24 18 27 27 39 44 38 27 24 16 2 6 4 5 358 1 2 357 339 342 324 319 296 315 257 242 230 228 223 234 210 216 223 209 203 230 232 239 230 220 226 236 236 247 251 251 175 313 64 67 148 156 145 150 155 146 131 132 133 137 131 127 132 127 146 180 58 52
65 274 132 97 125 81 219 184 164 33 110 139 187 155 272 3 280 22 267 314 225 268 131 163 181 134 52 39 29 18 27 35 35 36 42 40 33 22 14 5 358 2 349 346 335 345 350 341 332 320 315 310 284 286 235 236 224 218 207 200 229 224 197 215 229 228 226 229 234 237 234 243 246 248 106 130 144 204 182 142 135 147 146 144 145 140 138 156 143 130 130 138 144 153 58 45 37
102 249 61 112 144 189 151 210 226 152 261 138 122 142 269 333 270 284 346 298 210 125 50 358 5 9 42 29 24 13 21 32 34 34 36 37 34 29 15 2 348 338 341 318 336 344 346 339 332 314 310 286 251 272 237 230 232 222 216 211 216 203 251 252 239 224 214 203 210 219 218 224 235 248 231 222 225 227 225 202 180 191 191 181 174 174 180 162 170 141 144 181 101 130 99 58 15
209 21 43 100 139 192 116 149 69 168 283 193 127 242 299 66 222 234 253 269 298 74 53 38 53 52 42 31 11 12 27 32 29 29 28 26 20 15 5 356 348 337 342 341 347 338 347 338 331 320 298 274 235 224 232 223 247 223 213 214 229 250 239 203 232 250 258 247 237 234 225 228 238 238 235 234 235 239 234 230 216 214 209 203 193 222 207 194 207 168 171 168 143 89 88 75 30
236 134 42 256 47 330 82 140 164 177 156 200 242 291 48 224 268 235 248 266 68 18 44 58 56 53 58 42 28 39 34 31 28 26 18 18 11 9 3 355 354 351 347 352 343 344 338 336 333 321 294 274 229 204 214 206 218 230 219 181 223 244 285 289 156 206 230 285 252 238 224 232 244 253 247 230 228 228 228 229 211 214 217 215 207 224 208 188 185 183 196 150 99 99 112 121 113
299 77 137 152 184 246 100 139 136 210 191 232 341 65 247 208 269 91 232 69 86 72 65 72 70 76 71 59 44 44 42 34 31 25 21 20 11 2 356 351 351 345 350 351 351 341 341 332 327 329 310 257 194 184 196 185 201 215 195 223 229 121 64 43 11 33 67 62 20 327 284 254 229 233 245 245 244 248 239 236 237 219 211 202 142 28 6 35 193 204 169 108 116 135 159 161 142
235 191 157 107 243 246 229 233 205 200 234 110 262 249 252 241 283 155 160 102 99 100 89 78 87 85 65 52 41 36 36 34 30 29 29 22 13 6 12 2 358 3 1 355 346 342 335 331 328 346 353 229 164 172 163 169 170 170 187 123 86 84 83 74 44 37 37 38 49 26 4 290 221 213 237 252 269 239 218 221 229 252 243 208 181 143 146 225 240 207 156 140 142 157 166 191 147
6 53 167 160 226 225 244 251 242 215 217 187 200 239 252 18 39 252 102 113 110 116 97 75 84 64 46 40 35 31 31 29 21 20 15 12 15 16 18 10 5 12 1 354 349 341 334 332 342 348 353 92 134 153 141 151 102 105 72 47 37 51 51 49 54 54 41 32 41 32 27 348 330 233 223 182 121 41 51 52 27 23 320 284 218 193 183 227 292 355 87 140 118 174 207 142 205
293 111 239 268 305 303 199 232 141 143 217 177 235 263 159 72 227 206 98 120 136 131 100 72 67 66 47 37 31 29 33 26 18 2 14 17 23 19 11 8 10 4 1 1 351 343 332 340 350 357 7 341 54 68 82 75 54 50 62 46 55 63 66 64 64 59 51 45 43 44 46 39 37 36 87 113 92 78 69 85 94 166 355 358 341 301 36 21 28 13 354 9 138 226 244 94 259
50 313 266 224 249 246 205 226 241 192 212 200 229 236 89 127 203 295 135 144 171 148 117 102 87 84 70 47 36 32 33 27 16 19 18 13 12 4 6 5 357 356 4 357 348 337 345 346 355 13 16 29 45 60 58 60 64 57 64 67 54 55 57 63 62 55 48 44 41 36 39 45 54 65 62 68 74 70 58 44 29 24 34 17 37 37 39 24 31 43 33 9 358 346 30 11 359
3 307 299 310 298 288 116 302 99 245 147 197 198 216 213 180 218 88 137 146 166 160 130 112 98 89 78 59 57 43 33 21 22 27 19 11 4 3 2 7 356 349 358 349 345 354 360 349 8 29 37 43 51 53 54 60 65 61 60 62 59 54 57 55 56 52 49 47 44 41 48 51 53 68 75 70 71 75 74 68 65 50 38 29 46 56 67 66 59 51 47 37 22 354 6 33 359
214 119 342 301 284 271 84 175 147 233 108 177 192 258 197 185 142 122 147 165 173 181 163 130 109 93 77 63 61 61 38 29 32 26 17 8 3 5 4 5 4 355 343 349 353 8 358 337 12 41 46 53 50 54 52 54 51 56 55 57 52 58 57 57 52 55 50 49 55 47 55 56 52 58 65 75 83 86 79 71 66 68 70 74 76 75 68 63 69 62 50 238 71 40 31 22 348
278 68 227 278 304 244 125 25 336 256 118 190 223 258 229 150 139 127 170 190 195 206 167 143 112 98 78 63 61 63 56 40 33 28 23 18 10 13 6 10 8 4 357 2 4 1 11 13 17 53 46 57 54 54 54 50 47 53 52 48 48 54 59 56 43 43 51 48 49 47 46 48 50 51 54 67 65 66 68 57 46 42 51 61 61 58 66 57 69 68 30 356 38 45 52 55 2
3 272 220 152 234 129 141 100 21 267 116 200 216 257 257 141 145 121 161 189 216 231 189 135 105 83 75 70 68 68 71 68 53 42 30 23 23 12 13 13 13 9 9 2 357 9 27 20 34 62 60 64 62 60 60 58 55 54 55 49 51 48 51 53 42 32 39 39 40 44 39 45 45 50 58 64 69 61 62 61 51 38 42 62 64 62 70 73 67 70 52 10 3 50 19 28 317
110 227 265 239 198 284 296 122 23 15 355 133 232 281 93 219 138 113 142 196 208 233 203 142 114 100 91 82 78 88 129 121 87 51 29 20 29 18 17 16 22 17 15 10 9 22 37 27 28 49 57 65 69 70 70 67 63 59 56 52 50 49 50 47 44 37 37 39 39 34 27 37 44 47 53 59 70 67 65 65 57 59 60 62 53 49 50 56 72 73 57 47 47 56 30 10 352
226 151 255 262 247 202 243 114 142 59 276 207 177 244 248 92 147 129 135 198 208 229 210 151 148 146 137 146 170 163 153 148 110 40 22 23 22 21 23 22 26 39 37 35 29 52 60 47 48 49 63 70 74 74 71 72 69 69 63 59 56 54 47 42 38 38 38 35 35 34 25 34 38 45 52 63 71 72 70 64 57 49 53 55 60 59 55 39 45 60 65 44 41 51 43 12 339
229 187 230 245 209 232 268 262 75 258 157 259 213 244 254 190 162 174 159 194 214 225 206 172 169 173 175 188 187 172 174 169 112 48 18 18 16 23 18 13 28 38 47 47 51 55 73 71 72 65 70 78 87 88 91 87 81 76 72 63 54 50 44 41 38 43 39 38 36 27 25 31 30 35 40 49 63 67 68 65 62 53 56 53 53 51 42 37 36 37 63 73 60 49 34 11 348
284 233 262 288 271 213 213 232 83 337 257 249 237 251 256 226 184 179 184 197 211 214 164 170 181 182 190 194 185 185 179 133 70 36 16 25 19 16 14 14 32 38 47 50 56 59 76 82 81 74 68 84 96 100 99 94 89 81 74 66 61 52 49 47 42 43 39 40 34 33 32 36 33 33 35 44 54 57 61 58 58 51 53 56 53 50 47 46 39 45 44 59 69 63 42 15 359
72 92 277 261 269 271 100 145 57 339 273 250 255 260 264 265 254 187 185 176 215 209 200 190 189 190 195 190 186 174 170 108 50 37 43 36 34 28 19 21 44 65 53 50 60 57 54 63 82 75 54 52 89 93 88 97 96 93 78 70 69 55 54 56 53 44 45 43 37 40 39 38 35 35 35 41 51 58 57 54 53 51 54 55 57 54 49 47 42 44 64 56 47 52 42 18 4
244 261 255 267 235 267 88 110 91 65 244 269 191 267 259 263 262 188 167 187 217 210 205 198 192 197 190 188 178 184 147 114 165 128 86 74 53 44 43 46 37 77 51 53 61 59 63 65 72 77 65 64 65 73 86 77 68 74 88 78 76 60 54 54 56 47 47 44 41 40 42 39 39 41 36 41 48 53 58 58 52 49 51 56 55 51 43 41 36 32 18 71 52 48 47 20 11
188 248 255 265 263 288 270 174 160 214 179 262 230 257 264 257 253 177 193 206 216 214 221 205 195 195 193 184 181 174 171 167 151 130 117 108 80 60 59 53 59 61 66 66 64 79 73 75 74 76 73 78 69 74 83 86 85 83 90 90 85 81 66 64 66 60 53 53 46 43 41 40 40 41 39 38 40 43 52 57 54 52 49 52 58 53 46 43 35 33 31 27 58 61 63 37 28
232 211 229 241 275 213 269 119 120 172 229 321 9 292 277 271 244 223 159 206 133 100 239 243 246 217 204 192 182 181 176 166 166 155 147 124 95 88 75 65 58 64 77 77 68 75 74 73 76 81 80 80 79 75 86 87 91 93 89 92 88 85 86 77 73 61 54 50 47 42 41 39 40 44 39 40 44 43 46 53 56 55 54 53 59 60 51 45 37 33 33 34 30 63 51 52 37
216 224 232 248 210 225 238 303 19 116 234 293 288 281 274 260 237 209 135 122 168 173 188 221 216 233 196 143 194 205 181 171 160 159 150 141 129 92 71 60 56 69 64 54 48 64 75 79 80 84 84 85 89 95 97 104 105 101 102 101 102 100 88 77 69 58 54 56 55 44 39 40 44 46 44 42 44 45 43 46 51 53 55 52 58 61 56 46 41 37 33 42 35 41 56 58 51
219 212 224 236 242 246 222 304 309 266 258 165 221 288 268 168 231 249 116 182 211 188 208 209 199 195 198 203 197 180 173 167 168 161 152 139 125 116 102 85 70 73 66 41 39 59 82 92 92 92 90 89 92 96 108 120 117 120 126 121 111 97 83 68 61 65 59 56 57 56 48 44 46 48 47 46 45 46 47 44 46 51 53 52 54 60 58 52 41 37 29 32 38 33 49 54 60
238 238 200 228 242 242 217 209 154 255 257 72 294 232 275 13 295 155 162 205 224 185 215 212 198 199 199 205 192 184 177 170 166 154 151 154 140 132 116 90 74 76 61 51 61 69 80 85 85 86 91 89 75 85 81 103 98 92 90 91 95 99 102 85 86 80 82 76 70 63 59 48 44 50 47 46 46 44 46 42 43 46 49 52 51 57 56 52 44 35 28 35 31 26 32 53 40
235 78 183 209 216 207 221 211 217 258 40 118 157 263 272 287 272 102 158 234 231 223 212 205 201 198 201 200 191 181 176 172 168 163 157 142 141 141 125 103 89 75 71 79 81 79 83 88 93 91 89 88 82 88 80 85 102 101 101 98 93 95 97 105 97 88 83 84 81 72 68 58 49 47 49 45 44 44 44 45 41 44 46 44 46 51 52 48 52 46 39 37 38 36 32 42 40
272 44 199 168 199 210 181 202 221 265 344 261 172 169 259 246 256 95 18 293 248 231 206 199 194 196 201 197 187 179 176 172 167 161 158 155 150 141 131 122 96 95 78 80 88 90 94 98 99 98 95 93 88 89 95 89 96 102 103 108 102 97 103 104 102 98 92 87 85 76 72 69 62 53 49 48 43 43 43 44 42 42 41 38 39 46 47 48 48 45 38 37 38 39 39 30 40
112 120 88 84 83 74 172 199 207 195 232 246 200 175 237 267 230 253 141 254 269 249 185 188 184 187 194 189 178 174 169 162 162 152 145 142 139 134 117 115 117 92 91 98 106 112 113 112 107 104 98 96 98 99 101 99 97 102 107 109 112 114 114 111 108 102 96 90 83 77 73 69 64 60 52 47 48 44 43 44 44 41 39 36 34 35 36 39 40 42 42 40 33 41 37 36 36
125 156 111 104 88 102 99 81 182 215 241 241 207 181 211 276 184 224 217 224 274 75 109 148 169 179 182 178 171 173 172 167 163 154 145 136 122 129 147 145 128 121 117 123 118 122 120 115 114 103 101 103 104 103 105 103 103 107 109 114 115 119 118 118 115 105 101 95 89 81 77 73 67 64 59 52 48 45 46 44 46 45 43 41 37 35 33 33 33 38 39 42 41 35 29 26 34
156 162 149 130 102 152 179 146 200 232 255 118 45 207 198 226 234 235 236 106 100 345 20 175 178 179 173 171 170 174 171 167 159 156 155 149 149 157 165 151 148 138 134 131 130 125 120 115 116 110 106 107 106 106 108 108 107 105 107 111 112 114 118 117 112 108 104 101 97 95 91 85 74 68 60 56 47 41 47 48 47 50 47 43 44 41 38 34 37 41 42 40 37 36 29 29 29
215 159 164 191 187 157 215 166 221 211 242 90 87 142 184 237 240 330 306 269 144 176 42 136 178 171 167 168 171 171 169 165 165 165 161 168 174 172 175 158 149 154 149 143 138 129 123 118 121 117 112 113 112 116 116 115 112 109 110 108 105 103 101 103 106 107 108 105 102 98 93 85 78 68 57 60 49 43 48 51 48 47 48 45 44 45 42 37 41 50 48 49 45 37 32 28 34
194 185 180 189 199 199 247 196 293 304 162 53 104 156 255 356 244 239 256 91 53 87 114 53 162 171 166 168 169 171 170 174 172 168 171 178 178 176 173 163 163 155 153 149 146 142 135 128 128 121 119 121 122 120 120 116 108 108 105 104 104 105 102 102 102 102 96 91 89 87 84 83 84 80 71 65 52 53 60 61 62 62 58 53 48 47 45 40 39 53 51 47 43 38 31 31 39
198 209 190 210 193 181 212 196 225 248 69 99 228 183 233 170 188 25 342 57 92 82 106 97 40 130 152 156 159 166 176 182 172 174 181 183 180 177 172 169 165 164 160 157 158 153 146 136 135 130 126 129 129 125 122 115 110 106 104 102 105 107 107 105 101 100 100 99 91 93 89 88 90 87 80 74 64 64 64 63 57 57 50 45 39 37 33 35 31 39 44 40 37 26 18 20 25
166 278 1 299 224 109 256 24 317 45 202 183 177 236 261 211 88 46 78 168 154 142 118 143 136 150 152 156 175 184 187 182 177 182 186 186 181 176 175 173 171 167 168 167 164 160 156 148 141 136 132 135 135 130 124 120 115 112 109 109 109 108 107 107 106 103 103 106 107 104 102 97 92 92 87 84 70 65 62 65 64 60 55 49 45 40 35 36 29 41 48 44 46 26 16 24 10
171 150 209 200 11 121 103 134 91 40 293 254 148 248 233 308 243 154 183 165 164 150 142 155 154 157 168 181 184 188 189 183 178 187 189 183 175 182 184 178 175 173 174 175 171 170 163 151 144 137 135 136 137 132 126 123 121 119 118 118 121 122 121 120 121 123 121 119 115 110 102 98 98 89 88 76 66 64 62 63 73 66 56 52 50 47 38 31 19 38 35 34 30 15 360 14 359
106 216 205 73 38 358 205 247 127 220 250 266 144 215 209 159 239 139 178 194 183 183 172 166 164 166 186 194 191 191 187 183 183 188 187 181 182 187 185 182 180 179 175 170 168 166 162 159 154 144 146 144 144 136 132 132 130 125 128 127 125 123 122 125 128 131 131 126 123 117 118 106 86 83 88 92 99 95 84 68 65 64 56 48 43 36 29 21 10 26 23 30 25 357 349 354 354
246 197 123 164 201 212 188 222 238 193 234 260 206 217 232 196 200 149 193 197 192 190 160 167 187 193 201 196 195 185 177 176 186 191 188 185 190 192 187 181 175 176 172 167 163 162 164 163 158 156 151 150 145 141 137 136 136 132 134 134 133 130 128 127 129 130 131 128 121 114 107 105 111 119 123 124 114 85 73 69 64 52 48 41 37 33 19 17 11 16 10 13 18 359 349 344 346
21 127 194 1 337 232 160 208 314 192 251 208 243 135 240 190 204 178 187 194 190 162 154 200 203 198 192 191 185 182 187 193 192 192 189 186 191 189 181 177 174 176 174 170 165 165 170 168 164 157 146 144 145 144 145 143 142 137 135 133 134 133 133 135 137 139 133 124 119 120 126 133 137 139 115 102 82 73 62 55 51 46 37 36 27 25 17 11 4 14 1 1 357 348 341 332 333
167 190 193 171 217 347 324 340 207 208 234 221 275 259 220 169 185 179 183 189 169 158 190 202 201 199 191 183 179 182 190 192 192 191 183 181 184 182 176 176 176 175 173 168 168 173 173 171 174 166 160 157 156 155 152 148 147 146 143 143 144 143 142 140 141 136 126 127 137 144 138 132 125 94 90 82 71 61 54 49 44 39 31 22 19 10 10 359 359 357 349 345 336 335 330 324 322
186 182 190 185 165 175 185 230 94 241 215 241 192 255 104 165 16 307 119 121 139 185 188 195 189 174 165 172 182 187 192 194 192 179 163 172 181 177 170 173 176 170 172 175 175 177 179 183 178 173 170 169 164 164 161 155 155 153 152 148 148 147 147 148 145 142 139 144 145 132 126 118 96 84 72 64 64 59 52 45 45 36 29 21 9 4 358 351 347 340 336 338 327 331 323 321 319